Details From KHPN - Westchester Co
To TXKF - Bermuda Intl
Flight Number -
Tags Real Decoded
Created
Modified
Stats Distance 679 nm / 1,257 km
Max Altitude 0 ft / 0 m
Waypoints 2
Social Downloads 1
Likes 0
Share VATSIM

Download

Looking for another format? Having issues loading an existing format? Contact us
Advertisement - Login to hide

Notes

Decoded

Route

KHPN TXKF

ID Type Via Altitude Latitude Longitude Leg Dist Tot Dist Heading (true) Name
O KHPN APT - 0 ft / 0 m 41.06705˚ -73.71576˚ - 0 nm - -
O TXKF APT - 0 ft / 0 m 32.36669˚ -64.69410˚ 678 nm 678 nm 137° / 143° -

Altitude Profile

Advertisement - Login to hide

Weather


0- 5 10 15 20 25 30 35+ Temperature / ° C

Clouds and Precipitation
Forecast for 2018-05-25 18:00 UTC. Updated 4 hours ago

Ground ~20,000 ft ~40,000 ft Winds

KHPN

Details ICAO KHPN (HPN)
Name WESTCHESTER CO
Region United States
Timezone America/New_York (UTC-4.0)
Stats Elevation 439 ft / 134 m (AMSL)
Location 41.066758° -73.707617°
Runways 2
Magnetic Variation 13.117° W

METAR

KHPN 252056Z 21008G17KT 10SM CLR 29/10 A2984 RMK AO2 SLP100 T02890100 58022

Decode

TAF

TAF AMD KHPN 252102Z 2521/2618 22010G18KT P6SM FEW250 FM260000 23007KT P6SM FEW250 FM260300 VRB04KT P6SM FEW250 FM261600 26007KT P6SM SCT060 BKN150 AMD NOT SKED

Decode

Departure Runways

ID Width Length Bearing (true) Bearing (mag) Surface Threshold Offset Overrun Length
11 151 ft / 46 m 4,441 ft / 1,354 m 102.45° 115.57° Asphalt 0 ft / 0 m 0 ft / 0 m
16 151 ft / 46 m 6,551 ft / 1,997 m 149.99° 163.11° Asphalt 0 ft / 0 m 200 ft / 61 m
29 151 ft / 46 m 4,441 ft / 1,354 m 282.46° 295.58° Asphalt 1,296 ft / 395 m 0 ft / 0 m
34 151 ft / 46 m 6,551 ft / 1,997 m 330.00° 343.12° Asphalt 0 ft / 0 m 200 ft / 61 m

TXKF

Details ICAO TXKF (BDA)
Name Bermuda Intl
Region Bermuda
Timezone Unknown (UTC+0.0)
Stats Elevation 12 ft / 4 m (AMSL)
Location 32.364038° -64.678684°
Runways 1
Magnetic Variation 14.766° W

METAR

TXKF 252055Z 06005KT 040V120 9999 FEW030 FEW300 25/18 Q1019

Decode

TAF

TAF TXKF 251732Z 2518/2618 07007KT 9999 FEW030 SCT300 BECMG 2600/2603 VRB05KT

Decode

Destination Runways

ID Width Length Bearing (true) Bearing (mag) Surface Threshold Offset Overrun Length
12 150 ft / 46 m 9,701 ft / 2,957 m 101.50° 116.27° Asphalt 0 ft / 0 m 553 ft / 169 m
30 150 ft / 46 m 9,701 ft / 2,957 m 281.52° 296.29° Asphalt 0 ft / 0 m 207 ft / 63 m

Approach Navaids

Runway Type Ident Frequency Range Bearing (true) Bearing (mag) Slope Elevation
30 Localiser IBDA 109.90 MHz 18 nm / 33 km 281.50° 296.27° - 11 ft / 3 m (AMSL)
30 Glidescope IBDA 109.90 MHz 10 nm / 19 km 281.51° 296.28° 3.00° 11 ft / 3 m (AMSL)

Popular Alternatives